Time,TemperatureF,DewpointF,PressureIn,WindDirection,WindDirectionDegrees,WindSpeedMPH,WindSpeedGustMPH,Humidity,HourlyPrecipIn,Conditions,Clouds,dailyrainin,SolarRadiationWatts/m^2,SoftwareType,DateUTC
2013-08-15 00:00:00,64.0,55.9,29.91,SSW,207,0.0,1.0,75,0.00,,,0.00,0,Wunderground v.1.15,2013-08-15 07:00:00,
2013-08-15 00:06:00,63.8,55.7,29.91,SSW,207,0.0,1.0,75,0.00,,,0.00,0,Wunderground v.1.15,2013-08-15 07:06:00,
2013-08-15 00:11:00,63.6,55.5,29.92,SSW,207,0.0,1.0,75,0.00,,,0.00,0,Wunderground v.1.15,2013-08-15 07:11:00,
2013-08-15 00:17:00,63.4,55.7,29.91,SSW,207,0.0,1.0,76,0.00,,,0.00,0,Wunderground v.1.15,2013-08-15 07:17:00,
2013-08-15 00:22:00,63.1,55.4,29.91,SSW,207,0.0,1.0,76,0.00,,,0.00,0,Wunderground v.1.15,2013-08-15 07:22:00,
2013-08-15 00:27:00,62.9,55.2,29.91,SSW,207,0.0,1.0,76,0.00,,,0.00,0,Wunderground v.1.15,2013-08-15 07:27:00,
2013-08-15 00:32:00,62.7,55.0,29.91,SSW,207,0.0,1.0,76,0.00,,,0.00,0,Wunderground v.1.15,2013-08-15 07:32:00,
2013-08-15 00:38:00,62.5,54.8,29.91,SSW,207,0.0,1.0,76,0.00,,,0.00,0,Wunderground v.1.15,2013-08-15 07:38:00,
2013-08-15 00:43:00,62.3,55.0,29.91,SSW,207,0.0,1.0,77,0.00,,,0.00,0,Wunderground v.1.15,2013-08-15 07:43:00,
2013-08-15 00:48:00,62.1,54.8,29.91,SSW,207,0.0,1.0,77,0.00,,,0.00,0,Wunderground v.1.15,2013-08-15 07:48:00,
2013-08-15 00:54:00,61.8,54.5,29.91,SSW,207,0.0,1.0,77,0.00,,,0.00,0,Wunderground v.1.15,2013-08-15 07:54:00,
2013-08-15 00:59:00,61.7,54.8,29.91,SSW,207,0.0,1.0,78,0.00,,,0.00,0,Wunderground v.1.15,2013-08-15 07:59:00,
2013-08-15 01:04:00,61.5,54.6,29.91,SSW,207,0.0,1.0,78,0.00,,,0.00,0,Wunderground v.1.15,2013-08-15 08:04:00,
2013-08-15 01:09:00,61.4,54.5,29.91,SSW,207,0.0,1.0,78,0.00,,,0.00,0,Wunderground v.1.15,2013-08-15 08:09:00,
2013-08-15 01:15:00,61.2,54.3,29.91,SSW,207,0.0,1.0,78,0.00,,,0.00,0,Wunderground v.1.15,2013-08-15 08:15:00,
2013-08-15 01:20:00,61.0,54.1,29.91,SSW,207,0.0,1.0,78,0.00,,,0.00,0,Wunderground v.1.15,2013-08-15 08:20:00,
2013-08-15 01:25:00,60.8,53.9,29.91,SSW,207,0.0,1.0,78,0.00,,,0.00,0,Wunderground v.1.15,2013-08-15 08:25:00,
2013-08-15 01:31:00,60.6,53.7,29.91,SSW,207,0.0,1.0,78,0.00,,,0.00,0,Wunderground v.1.15,2013-08-15 08:31:00,
2013-08-15 01:36:00,60.4,53.9,29.91,SSW,207,0.0,1.0,79,0.00,,,0.00,0,Wunderground v.1.15,2013-08-15 08:36:00,
2013-08-15 01:41:00,60.3,53.8,29.91,SSW,207,0.0,1.0,79,0.00,,,0.00,0,Wunderground v.1.15,2013-08-15 08:41:00,
2013-08-15 01:46:00,60.1,53.9,29.91,SSW,207,0.0,1.0,80,0.00,,,0.00,0,Wunderground v.1.15,2013-08-15 08:46:00,
2013-08-15 01:52:00,60.0,54.2,29.91,SSW,207,0.0,1.0,81,0.00,,,0.00,0,Wunderground v.1.15,2013-08-15 08:52:00,
2013-08-15 01:57:00,59.9,54.1,29.91,SSW,207,0.0,1.0,81,0.00,,,0.00,0,Wunderground v.1.15,2013-08-15 08:57:00,
2013-08-15 02:02:00,59.7,53.9,29.91,SSW,207,0.0,1.0,81,0.00,,,0.00,0,Wunderground v.1.15,2013-08-15 09:02:00,
2013-08-15 02:08:00,59.5,54.0,29.90,SSW,207,0.0,1.0,82,0.00,,,0.00,0,Wunderground v.1.15,2013-08-15 09:08:00,
2013-08-15 02:13:00,59.3,53.8,29.90,SSW,207,0.0,1.0,82,0.00,,,0.00,0,Wunderground v.1.15,2013-08-15 09:13:00,
2013-08-15 02:18:00,59.2,53.7,29.90,SSW,207,0.0,1.0,82,0.00,,,0.00,0,Wunderground v.1.15,2013-08-15 09:18:00,
2013-08-15 02:23:00,59.1,53.6,29.90,SSW,207,0.0,1.0,82,0.00,,,0.00,0,Wunderground v.1.15,2013-08-15 09:23:00,
2013-08-15 02:29:00,59.0,53.5,29.90,SSW,207,0.0,1.0,82,0.00,,,0.00,0,Wunderground v.1.15,2013-08-15 09:29:00,
2013-08-15 02:34:00,58.8,53.3,29.90,SSW,207,0.0,1.0,82,0.00,,,0.00,0,Wunderground v.1.15,2013-08-15 09:34:00,
2013-08-15 02:39:00,58.7,53.5,29.91,SSW,207,0.0,1.0,83,0.00,,,0.00,0,Wunderground v.1.15,2013-08-15 09:39:00,
2013-08-15 02:44:00,58.6,53.5,29.91,SSW,207,0.0,1.0,83,0.00,,,0.00,0,Wunderground v.1.15,2013-08-15 09:44:00,
2013-08-15 02:50:00,58.5,53.4,29.91,SSW,207,0.0,1.0,83,0.00,,,0.00,0,Wunderground v.1.15,2013-08-15 09:50:00,
2013-08-15 02:55:00,58.2,53.1,29.91,SSW,207,0.0,1.0,83,0.00,,,0.00,0,Wunderground v.1.15,2013-08-15 09:55:00,
2013-08-15 03:00:00,58.1,53.0,29.91,SSW,207,0.0,1.0,83,0.00,,,0.00,0,Wunderground v.1.15,2013-08-15 10:00:00,
2013-08-15 03:06:00,57.9,52.8,29.91,SSW,207,0.0,1.0,83,0.00,,,0.00,0,Wunderground v.1.15,2013-08-15 10:06:00,
2013-08-15 03:11:00,57.8,53.0,29.91,SSW,207,0.0,1.0,84,0.00,,,0.00,0,Wunderground v.1.15,2013-08-15 10:11:00,
2013-08-15 03:16:00,57.7,52.9,29.91,SSW,207,0.0,1.0,84,0.00,,,0.00,0,Wunderground v.1.15,2013-08-15 10:16:00,
2013-08-15 03:21:00,57.6,52.8,29.91,SSW,207,0.0,1.0,84,0.00,,,0.00,0,Wunderground v.1.15,2013-08-15 10:21:00,
2013-08-15 03:27:00,57.5,52.7,29.91,SSW,207,0.0,1.0,84,0.00,,,0.00,0,Wunderground v.1.15,2013-08-15 10:27:00,
2013-08-15 03:32:00,57.3,52.8,29.91,SSW,207,0.0,1.0,85,0.00,,,0.00,0,Wunderground v.1.15,2013-08-15 10:32:00,
2013-08-15 03:37:00,57.2,52.7,29.91,SSW,207,0.0,1.0,85,0.00,,,0.00,0,Wunderground v.1.15,2013-08-15 10:37:00,
2013-08-15 03:42:00,57.1,52.6,29.91,SSW,207,0.0,1.0,85,0.00,,,0.00,0,Wunderground v.1.15,2013-08-15 10:42:00,
2013-08-15 03:48:00,57.0,52.5,29.91,SSW,207,0.0,1.0,85,0.00,,,0.00,0,Wunderground v.1.15,2013-08-15 10:48:00,
2013-08-15 03:53:00,56.9,52.4,29.91,SSW,207,0.0,1.0,85,0.00,,,0.00,0,Wunderground v.1.15,2013-08-15 10:53:00,
2013-08-15 03:58:00,56.8,52.3,29.91,SSW,207,0.0,1.0,85,0.00,,,0.00,0,Wunderground v.1.15,2013-08-15 10:58:00,
2013-08-15 04:04:00,56.7,52.2,29.91,SSW,207,0.0,1.0,85,0.00,,,0.00,0,Wunderground v.1.15,2013-08-15 11:04:00,
2013-08-15 04:09:00,56.6,52.5,29.91,SSW,207,0.0,1.0,86,0.00,,,0.00,0,Wunderground v.1.15,2013-08-15 11:09:00,
2013-08-15 04:14:00,56.5,52.4,29.91,SSW,207,0.0,1.0,86,0.00,,,0.00,0,Wunderground v.1.15,2013-08-15 11:14:00,
2013-08-15 04:19:00,56.4,52.3,29.90,SSW,207,0.0,1.0,86,0.00,,,0.00,0,Wunderground v.1.15,2013-08-15 11:19:00,
2013-08-15 04:25:00,56.4,52.3,29.91,SSW,207,0.0,1.0,86,0.00,,,0.00,0,Wunderground v.1.15,2013-08-15 11:25:00,
2013-08-15 04:30:00,56.3,52.5,29.90,SSW,207,0.0,1.0,87,0.00,,,0.00,0,Wunderground v.1.15,2013-08-15 11:30:00,
2013-08-15 04:35:00,56.3,52.5,29.90,SSW,207,0.0,1.0,87,0.00,,,0.00,0,Wunderground v.1.15,2013-08-15 11:35:00,
2013-08-15 04:41:00,56.2,52.4,29.90,SSW,207,0.0,1.0,87,0.00,,,0.00,0,Wunderground v.1.15,2013-08-15 11:41:00,
2013-08-15 04:46:00,56.1,52.3,29.90,SSW,207,0.0,1.0,87,0.00,,,0.00,0,Wunderground v.1.15,2013-08-15 11:46:00,
2013-08-15 04:51:00,56.0,51.9,29.90,SSW,207,0.0,1.0,86,0.00,,,0.00,0,Wunderground v.1.15,2013-08-15 11:51:00,
2013-08-15 04:57:00,55.8,51.7,29.91,SSW,207,0.0,1.0,86,0.00,,,0.00,0,Wunderground v.1.15,2013-08-15 11:57:00,
2013-08-15 05:03:00,55.7,51.9,29.91,SSW,207,0.0,1.0,87,0.00,,,0.00,0,Wunderground v.1.15,2013-08-15 12:03:00,
2013-08-15 05:08:00,55.7,51.9,29.91,SSW,207,0.0,1.0,87,0.00,,,0.00,0,Wunderground v.1.15,2013-08-15 12:08:00,
2013-08-15 05:13:00,55.6,51.8,29.91,SSW,207,0.0,1.0,87,0.00,,,0.00,0,Wunderground v.1.15,2013-08-15 12:13:00,
2013-08-15 05:19:00,55.5,51.7,29.91,SSW,207,0.0,1.0,87,0.00,,,0.00,0,Wunderground v.1.15,2013-08-15 12:19:00,
2013-08-15 05:24:00,55.5,51.7,29.91,SSW,207,0.0,1.0,87,0.00,,,0.00,0,Wunderground v.1.15,2013-08-15 12:24:00,
2013-08-15 05:29:00,55.4,51.6,29.91,SSW,207,0.0,1.0,87,0.00,,,0.00,0,Wunderground v.1.15,2013-08-15 12:29:00,
2013-08-15 05:34:00,55.3,51.5,29.91,SSW,207,0.0,1.0,87,0.00,,,0.00,0,Wunderground v.1.15,2013-08-15 12:34:00,
2013-08-15 05:40:00,55.2,51.7,29.91,SSW,207,0.0,1.0,88,0.00,,,0.00,0,Wunderground v.1.15,2013-08-15 12:40:00,
2013-08-15 05:45:00,55.1,51.6,29.91,SSW,207,0.0,1.0,88,0.00,,,0.00,0,Wunderground v.1.15,2013-08-15 12:45:00,
2013-08-15 05:50:00,55.1,51.6,29.91,SSW,207,0.0,1.0,88,0.00,,,0.00,0,Wunderground v.1.15,2013-08-15 12:50:00,
2013-08-15 05:56:00,55.0,51.5,29.91,SSW,207,0.0,1.0,88,0.00,,,0.00,0,Wunderground v.1.15,2013-08-15 12:56:00,
2013-08-15 06:01:00,55.0,51.5,29.91,SSW,207,0.0,1.0,88,0.00,,,0.00,0,Wunderground v.1.15,2013-08-15 13:01:00,
2013-08-15 06:06:00,54.9,51.4,29.91,SSW,207,0.0,1.0,88,0.00,,,0.00,0,Wunderground v.1.15,2013-08-15 13:06:00,
2013-08-15 06:12:00,54.8,51.6,29.91,SSW,207,0.0,1.0,89,0.00,,,0.00,0,Wunderground v.1.15,2013-08-15 13:12:00,
2013-08-15 06:17:00,54.8,51.6,29.91,SSW,207,0.0,1.0,89,0.00,,,0.00,0,Wunderground v.1.15,2013-08-15 13:17:00,
2013-08-15 06:22:00,54.8,51.6,29.91,SSW,207,0.0,1.0,89,0.00,,,0.00,0,Wunderground v.1.15,2013-08-15 13:22:00,
2013-08-15 06:28:00,54.7,51.5,29.91,SSW,207,0.0,1.0,89,0.00,,,0.00,5,Wunderground v.1.15,2013-08-15 13:28:00,
2013-08-15 06:33:00,54.6,51.4,29.91,SSW,207,0.0,1.0,89,0.00,,,0.00,7,Wunderground v.1.15,2013-08-15 13:33:00,
2013-08-15 06:38:00,54.6,51.4,29.91,SSW,207,0.0,1.0,89,0.00,,,0.00,9,Wunderground v.1.15,2013-08-15 13:38:00,
2013-08-15 06:43:00,54.5,51.3,29.92,SSW,207,0.0,1.0,89,0.00,,,0.00,11,Wunderground v.1.15,2013-08-15 13:43:00,
2013-08-15 06:49:00,54.4,51.2,29.92,SSW,207,0.0,1.0,89,0.00,,,0.00,12,Wunderground v.1.15,2013-08-15 13:49:00,
2013-08-15 06:54:00,54.4,51.2,29.93,SSW,207,0.0,1.0,89,0.00,,,0.00,14,Wunderground v.1.15,2013-08-15 13:54:00,
2013-08-15 06:59:00,54.3,51.1,29.93,SSW,207,0.0,1.0,89,0.00,,,0.00,14,Wunderground v.1.15,2013-08-15 13:59:00,
2013-08-15 07:05:00,54.3,51.4,29.93,SSW,207,0.0,1.0,90,0.00,,,0.00,21,Wunderground v.1.15,2013-08-15 14:05:00,
2013-08-15 07:11:00,54.4,51.5,29.93,SSW,207,0.0,1.0,90,0.00,,,0.00,69,Wunderground v.1.15,2013-08-15 14:11:00,
2013-08-15 07:16:00,54.7,51.8,29.93,SSW,207,0.0,1.0,90,0.00,,,0.00,83,Wunderground v.1.15,2013-08-15 14:16:00,
2013-08-15 07:22:00,55.0,52.1,29.93,SSW,207,0.0,1.0,90,0.00,,,0.00,100,Wunderground v.1.15,2013-08-15 14:22:00,
2013-08-15 07:27:00,55.3,52.7,29.93,SSW,207,0.0,1.0,91,0.00,,,0.00,118,Wunderground v.1.15,2013-08-15 14:27:00,
2013-08-15 07:32:00,55.8,53.2,29.94,SSW,207,0.0,1.0,91,0.00,,,0.00,134,Wunderground v.1.15,2013-08-15 14:32:00,
2013-08-15 07:38:00,56.6,54.3,29.94,SSW,207,0.0,1.0,92,0.00,,,0.00,146,Wunderground v.1.15,2013-08-15 14:38:00,
2013-08-15 07:43:00,57.6,55.3,29.94,SSW,207,0.0,1.0,92,0.00,,,0.00,179,Wunderground v.1.15,2013-08-15 14:43:00,
2013-08-15 07:48:00,58.5,55.6,29.94,SSW,207,0.0,1.0,90,0.00,,,0.00,197,Wunderground v.1.15,2013-08-15 14:48:00,
2013-08-15 07:54:00,59.4,56.2,29.94,SSW,207,0.0,1.0,89,0.00,,,0.00,216,Wunderground v.1.15,2013-08-15 14:54:00,
2013-08-15 07:59:00,60.1,56.5,29.94,SSW,207,0.0,1.0,88,0.00,,,0.00,232,Wunderground v.1.15,2013-08-15 14:59:00,
2013-08-15 08:05:00,60.9,57.0,29.95,SSW,207,0.0,1.0,87,0.00,,,0.00,251,Wunderground v.1.15,2013-08-15 15:05:00,
2013-08-15 08:10:00,61.6,57.4,29.94,SSW,207,0.0,1.0,86,0.00,,,0.00,269,Wunderground v.1.15,2013-08-15 15:10:00,
2013-08-15 08:15:00,62.2,57.6,29.94,SSW,207,1.0,2.0,85,0.00,,,0.00,285,Wunderground v.1.15,2013-08-15 15:15:00,
2013-08-15 08:20:00,62.7,57.8,29.94,SSW,207,1.0,1.0,84,0.00,,,0.00,302,Wunderground v.1.15,2013-08-15 15:20:00,
2013-08-15 08:26:00,63.3,58.0,29.94,SSW,207,0.0,1.0,83,0.00,,,0.00,322,Wunderground v.1.15,2013-08-15 15:26:00,
2013-08-15 08:31:00,64.0,58.4,29.94,SSW,207,0.0,1.0,82,0.00,,,0.00,338,Wunderground v.1.15,2013-08-15 15:31:00,
2013-08-15 08:37:00,64.8,58.8,29.94,SSW,207,0.0,1.0,81,0.00,,,0.00,359,Wunderground v.1.15,2013-08-15 15:37:00,
2013-08-15 08:42:00,65.4,59.1,29.94,SSW,205,0.0,1.0,80,0.00,,,0.00,373,Wunderground v.1.15,2013-08-15 15:42:00,
2013-08-15 08:47:00,66.1,59.4,29.94,SSW,205,0.0,1.0,79,0.00,,,0.00,392,Wunderground v.1.15,2013-08-15 15:47:00,
2013-08-15 08:53:00,67.0,59.5,29.94,SSW,205,0.0,1.0,77,0.00,,,0.00,408,Wunderground v.1.15,2013-08-15 15:53:00,
2013-08-15 08:58:00,67.6,59.8,29.94,SSW,205,0.0,1.0,76,0.00,,,0.00,425,Wunderground v.1.15,2013-08-15 15:58:00,
2013-08-15 09:03:00,68.3,60.1,29.94,SSW,202,0.0,1.0,75,0.00,,,0.00,441,Wunderground v.1.15,2013-08-15 16:03:00,
2013-08-15 09:09:00,69.2,60.6,29.94,SSW,202,0.0,1.0,74,0.00,,,0.00,461,Wunderground v.1.15,2013-08-15 16:09:00,
2013-08-15 09:14:00,69.9,60.5,29.94,SSW,202,0.0,1.0,72,0.00,,,0.00,476,Wunderground v.1.15,2013-08-15 16:14:00,
2013-08-15 09:21:00,70.6,60.7,29.94,SSW,202,0.0,1.0,71,0.00,,,0.00,497,Wunderground v.1.15,2013-08-15 16:21:00,
2013-08-15 09:26:00,71.1,60.8,29.94,SSW,202,0.0,1.0,70,0.00,,,0.00,513,Wunderground v.1.15,2013-08-15 16:26:00,
2013-08-15 09:32:00,71.5,60.8,29.94,SSW,202,0.0,1.0,69,0.00,,,0.00,531,Wunderground v.1.15,2013-08-15 16:32:00,
2013-08-15 09:37:00,72.0,60.9,29.94,SSW,202,0.0,1.0,68,0.00,,,0.00,545,Wunderground v.1.15,2013-08-15 16:37:00,
2013-08-15 09:42:00,72.7,61.1,29.94,SSW,202,0.0,2.0,67,0.00,,,0.00,561,Wunderground v.1.15,2013-08-15 16:42:00,
2013-08-15 09:47:00,73.3,61.3,29.94,SSW,202,0.0,2.0,66,0.00,,,0.00,575,Wunderground v.1.15,2013-08-15 16:47:00,
2013-08-15 09:53:00,74.2,61.7,29.94,SSW,202,0.0,1.0,65,0.00,,,0.00,594,Wunderground v.1.15,2013-08-15 16:53:00,
2013-08-15 09:58:00,75.0,61.5,29.94,WNW,292,0.0,2.0,63,0.00,,,0.00,608,Wunderground v.1.15,2013-08-15 16:58:00,
2013-08-15 10:03:00,75.5,61.6,29.94,NW,313,1.0,2.0,62,0.00,,,0.00,621,Wunderground v.1.15,2013-08-15 17:03:00,
2013-08-15 10:09:00,76.5,62.0,29.94,NW,314,0.0,2.0,61,0.00,,,0.00,633,Wunderground v.1.15,2013-08-15 17:09:00,
2013-08-15 10:14:00,77.5,62.5,29.94,West,260,0.0,1.0,60,0.00,,,0.00,649,Wunderground v.1.15,2013-08-15 17:14:00,
2013-08-15 10:19:00,78.2,61.7,29.94,West,260,0.0,1.0,57,0.00,,,0.00,661,Wunderground v.1.15,2013-08-15 17:19:00,
2013-08-15 10:24:00,78.7,62.2,29.94,WNW,298,0.0,1.0,57,0.00,,,0.00,675,Wunderground v.1.15,2013-08-15 17:24:00,
2013-08-15 10:30:00,79.5,61.4,29.94,West,269,0.0,1.0,54,0.00,,,0.00,689,Wunderground v.1.15,2013-08-15 17:30:00,
2013-08-15 10:35:00,80.2,61.5,29.94,West,271,0.0,1.0,53,0.00,,,0.00,701,Wunderground v.1.15,2013-08-15 17:35:00,
2013-08-15 10:41:00,80.5,61.3,29.94,North,350,1.0,2.0,52,0.00,,,0.00,715,Wunderground v.1.15,2013-08-15 17:41:00,
2013-08-15 10:48:00,80.9,62.2,29.94,WNW,295,1.0,5.0,53,0.00,,,0.00,728,Wunderground v.1.15,2013-08-15 17:48:00,
2013-08-15 10:54:00,80.8,61.0,29.94,NW,315,3.0,8.0,51,0.00,,,0.00,740,Wunderground v.1.15,2013-08-15 17:54:00,
2013-08-15 10:59:00,80.3,60.5,29.94,North,350,3.0,8.0,51,0.00,,,0.00,752,Wunderground v.1.15,2013-08-15 17:59:00,
2013-08-15 11:05:00,80.3,60.5,29.94,NW,316,2.0,5.0,51,0.00,,,0.00,765,Wunderground v.1.15,2013-08-15 18:05:00,
2013-08-15 11:10:00,80.5,60.7,29.94,NNW,344,3.0,4.0,51,0.00,,,0.00,773,Wunderground v.1.15,2013-08-15 18:10:00,
2013-08-15 11:15:00,80.7,60.3,29.94,North,355,2.0,4.0,50,0.00,,,0.00,784,Wunderground v.1.15,2013-08-15 18:15:00,
2013-08-15 11:21:00,81.2,60.8,29.93,NW,322,2.0,6.0,50,0.00,,,0.00,796,Wunderground v.1.15,2013-08-15 18:21:00,
2013-08-15 11:26:00,81.4,61.0,29.93,NW,324,2.0,6.0,50,0.00,,,0.00,800,Wunderground v.1.15,2013-08-15 18:26:00,
2013-08-15 11:32:00,81.4,61.0,29.93,NNW,338,3.0,4.0,50,0.00,,,0.00,812,Wunderground v.1.15,2013-08-15 18:32:00,
2013-08-15 11:38:00,81.4,60.4,29.93,NW,315,3.0,6.0,49,0.00,,,0.00,824,Wunderground v.1.15,2013-08-15 18:38:00,
2013-08-15 11:43:00,81.5,60.5,29.93,NW,324,3.0,6.0,49,0.00,,,0.00,830,Wunderground v.1.15,2013-08-15 18:43:00,
2013-08-15 11:48:00,81.5,60.5,29.93,NNW,347,3.0,6.0,49,0.00,,,0.00,835,Wunderground v.1.15,2013-08-15 18:48:00,
2013-08-15 11:53:00,81.7,60.1,29.94,NNW,336,4.0,9.0,48,0.00,,,0.00,842,Wunderground v.1.15,2013-08-15 18:53:00,
2013-08-15 11:59:00,82.3,60.6,29.94,NW,318,3.0,9.0,48,0.00,,,0.00,851,Wunderground v.1.15,2013-08-15 18:59:00,
2013-08-15 12:04:00,82.8,61.1,29.93,NNW,328,3.0,5.0,48,0.00,,,0.00,856,Wunderground v.1.15,2013-08-15 19:04:00,
2013-08-15 12:10:00,83.3,61.0,29.93,NNW,336,3.0,3.0,47,0.00,,,0.00,863,Wunderground v.1.15,2013-08-15 19:10:00,
2013-08-15 12:15:00,83.9,60.3,29.93,North,360,3.0,6.0,45,0.00,,,0.00,870,Wunderground v.1.15,2013-08-15 19:15:00,
2013-08-15 12:21:00,84.0,60.4,29.93,NNW,344,4.0,5.0,45,0.00,,,0.00,874,Wunderground v.1.15,2013-08-15 19:21:00,
2013-08-15 12:27:00,84.1,59.8,29.93,NNW,331,4.0,5.0,44,0.00,,,0.00,881,Wunderground v.1.15,2013-08-15 19:27:00,
2013-08-15 12:33:00,84.1,60.5,29.93,NW,316,4.0,7.0,45,0.00,,,0.00,884,Wunderground v.1.15,2013-08-15 19:33:00,
2013-08-15 12:39:00,84.1,61.1,29.93,NW,314,4.0,9.0,46,0.00,,,0.00,889,Wunderground v.1.15,2013-08-15 19:39:00,
2013-08-15 12:44:00,84.3,60.6,29.93,NW,313,3.0,6.0,45,0.00,,,0.00,891,Wunderground v.1.15,2013-08-15 19:44:00,
2013-08-15 12:49:00,84.5,60.8,29.93,NNW,332,3.0,6.0,45,0.00,,,0.00,896,Wunderground v.1.15,2013-08-15 19:49:00,
2013-08-15 12:55:00,84.7,61.0,29.92,NW,321,3.0,8.0,45,0.00,,,0.00,895,Wunderground v.1.15,2013-08-15 19:55:00,
2013-08-15 13:01:00,85.7,61.3,29.92,SW,227,3.0,3.0,44,0.00,,,0.00,896,Wunderground v.1.15,2013-08-15 20:01:00,
2013-08-15 13:07:00,86.1,61.0,29.92,NW,312,3.0,8.0,43,0.00,,,0.00,900,Wunderground v.1.15,2013-08-15 20:07:00,
2013-08-15 13:13:00,86.4,61.3,29.93,West,273,3.0,4.0,43,0.00,,,0.00,898,Wunderground v.1.15,2013-08-15 20:13:00,
2013-08-15 13:19:00,86.6,60.8,29.93,NNW,346,4.0,6.0,42,0.00,,,0.00,900,Wunderground v.1.15,2013-08-15 20:19:00,
2013-08-15 13:25:00,86.8,61.0,29.92,NNW,328,3.0,6.0,42,0.00,,,0.00,900,Wunderground v.1.15,2013-08-15 20:25:00,
2013-08-15 13:32:00,87.8,62.5,29.92,WSW,248,3.0,4.0,43,0.00,,,0.00,898,Wunderground v.1.15,2013-08-15 20:32:00,
2013-08-15 13:37:00,88.1,62.8,29.92,WSW,248,3.0,7.0,43,0.00,,,0.00,896,Wunderground v.1.15,2013-08-15 20:37:00,
2013-08-15 13:42:00,88.1,62.8,29.92,SSW,200,4.0,8.0,43,0.00,,,0.00,896,Wunderground v.1.15,2013-08-15 20:42:00,
2013-08-15 13:48:00,88.0,64.0,29.92,SSW,199,4.0,8.0,45,0.00,,,0.00,893,Wunderground v.1.15,2013-08-15 20:48:00,
2013-08-15 13:53:00,88.1,63.4,29.92,SSW,210,4.0,7.0,44,0.00,,,0.00,891,Wunderground v.1.15,2013-08-15 20:53:00,
2013-08-15 13:58:00,87.8,63.8,29.92,SW,217,5.0,12.0,45,0.00,,,0.00,888,Wunderground v.1.15,2013-08-15 20:58:00,
2013-08-15 14:04:00,87.2,63.3,29.92,SSW,211,6.0,8.0,45,0.00,,,0.00,886,Wunderground v.1.15,2013-08-15 21:04:00,
2013-08-15 14:09:00,86.8,62.9,29.92,SSW,211,6.0,10.0,45,0.00,,,0.00,881,Wunderground v.1.15,2013-08-15 21:09:00,
2013-08-15 14:15:00,86.7,63.4,29.92,West,264,5.0,9.0,46,0.00,,,0.00,875,Wunderground v.1.15,2013-08-15 21:15:00,
2013-08-15 14:21:00,86.4,63.2,29.92,SSW,196,6.0,6.0,46,0.00,,,0.00,870,Wunderground v.1.15,2013-08-15 21:21:00,
2013-08-15 14:27:00,86.2,63.0,29.92,SSW,202,6.0,13.0,46,0.00,,,0.00,863,Wunderground v.1.15,2013-08-15 21:27:00,
2013-08-15 14:33:00,86.0,63.4,29.92,SSE,166,6.0,8.0,47,0.00,,,0.00,856,Wunderground v.1.15,2013-08-15 21:33:00,
2013-08-15 14:39:00,85.8,63.2,29.92,WSW,248,6.0,8.0,47,0.00,,,0.00,851,Wunderground v.1.15,2013-08-15 21:39:00,
2013-08-15 14:45:00,85.5,63.0,29.92,SSW,213,6.0,13.0,47,0.00,,,0.00,842,Wunderground v.1.15,2013-08-15 21:45:00,
2013-08-15 14:50:00,85.6,63.7,29.92,SSW,205,6.0,6.0,48,0.00,,,0.00,835,Wunderground v.1.15,2013-08-15 21:50:00,
2013-08-15 14:55:00,85.6,63.7,29.92,SSW,196,5.0,9.0,48,0.00,,,0.00,828,Wunderground v.1.15,2013-08-15 21:55:00,
2013-08-15 15:00:00,85.6,63.1,29.92,SSW,201,5.0,5.0,47,0.00,,,0.00,821,Wunderground v.1.15,2013-08-15 22:00:00,
2013-08-15 15:05:00,85.7,63.8,29.92,WSW,238,5.0,6.0,48,0.00,,,0.00,810,Wunderground v.1.15,2013-08-15 22:05:00,
2013-08-15 15:11:00,85.8,63.8,29.92,SW,220,5.0,7.0,48,0.00,,,0.00,802,Wunderground v.1.15,2013-08-15 22:11:00,
2013-08-15 15:16:00,85.7,63.8,29.92,SSW,209,5.0,12.0,48,0.00,,,0.00,793,Wunderground v.1.15,2013-08-15 22:16:00,
2013-08-15 15:21:00,85.6,63.7,29.92,SSW,209,6.0,8.0,48,0.00,,,0.00,779,Wunderground v.1.15,2013-08-15 22:21:00,
2013-08-15 15:26:00,85.4,63.5,29.92,South,178,6.0,10.0,48,0.00,,,0.00,772,Wunderground v.1.15,2013-08-15 22:26:00,
2013-08-15 15:32:00,85.3,64.0,29.92,WSW,254,5.0,8.0,49,0.00,,,0.00,761,Wunderground v.1.15,2013-08-15 22:32:00,
2013-08-15 15:37:00,85.1,63.8,29.92,SW,222,5.0,10.0,49,0.00,,,0.00,749,Wunderground v.1.15,2013-08-15 22:37:00,
2013-08-15 15:43:00,84.7,64.0,29.92,SW,221,6.0,6.0,50,0.00,,,0.00,737,Wunderground v.1.15,2013-08-15 22:43:00,
2013-08-15 15:48:00,84.3,63.6,29.92,SSE,150,6.0,10.0,50,0.00,,,0.00,726,Wunderground v.1.15,2013-08-15 22:48:00,
2013-08-15 15:53:00,84.1,64.0,29.92,WNW,286,6.0,6.0,51,0.00,,,0.00,717,Wunderground v.1.15,2013-08-15 22:53:00,
2013-08-15 15:59:00,84.0,63.9,29.91,West,273,5.0,11.0,51,0.00,,,0.00,700,Wunderground v.1.15,2013-08-15 22:59:00,
2013-08-15 16:04:00,83.7,64.2,29.92,South,191,6.0,11.0,52,0.00,,,0.00,687,Wunderground v.1.15,2013-08-15 23:04:00,
2013-08-15 16:09:00,83.4,63.9,29.92,SSW,205,6.0,11.0,52,0.00,,,0.00,677,Wunderground v.1.15,2013-08-15 23:09:00,
2013-08-15 16:15:00,83.3,64.4,29.92,WSW,254,6.0,9.0,53,0.00,,,0.00,661,Wunderground v.1.15,2013-08-15 23:15:00,
2013-08-15 16:20:00,83.4,63.9,29.92,SSW,210,5.0,5.0,52,0.00,,,0.00,650,Wunderground v.1.15,2013-08-15 23:20:00,
2013-08-15 16:25:00,83.4,63.9,29.91,West,259,4.0,12.0,52,0.00,,,0.00,635,Wunderground v.1.15,2013-08-15 23:25:00,
2013-08-15 16:30:00,83.7,64.2,29.91,West,275,4.0,7.0,52,0.00,,,0.00,621,Wunderground v.1.15,2013-08-15 23:30:00,
2013-08-15 16:36:00,83.8,64.3,29.91,SW,223,4.0,7.0,52,0.00,,,0.00,608,Wunderground v.1.15,2013-08-15 23:36:00,
2013-08-15 16:41:00,84.1,64.0,29.91,South,184,4.0,5.0,51,0.00,,,0.00,594,Wunderground v.1.15,2013-08-15 23:41:00,
2013-08-15 16:47:00,84.0,63.9,29.91,WSW,251,4.0,10.0,51,0.00,,,0.00,578,Wunderground v.1.15,2013-08-15 23:47:00,
2013-08-15 16:52:00,83.9,63.8,29.91,WSW,243,4.0,5.0,51,0.00,,,0.00,563,Wunderground v.1.15,2013-08-15 23:52:00,
2013-08-15 16:57:00,84.0,63.9,29.91,WSW,251,3.0,5.0,51,0.00,,,0.00,548,Wunderground v.1.15,2013-08-15 23:57:00,
2013-08-15 17:02:00,84.1,64.6,29.91,SSW,200,2.0,5.0,52,0.00,,,0.00,534,Wunderground v.1.15,2013-08-16 00:02:00,
2013-08-15 17:08:00,84.0,63.9,29.91,SW,217,3.0,6.0,51,0.00,,,0.00,517,Wunderground v.1.15,2013-08-16 00:08:00,
2013-08-15 17:13:00,83.8,63.7,29.91,WSW,252,4.0,8.0,51,0.00,,,0.00,501,Wunderground v.1.15,2013-08-16 00:13:00,
2013-08-15 17:19:00,83.5,64.0,29.91,SW,228,4.0,8.0,52,0.00,,,0.00,482,Wunderground v.1.15,2013-08-16 00:19:00,
2013-08-15 17:24:00,83.4,64.5,29.91,South,185,2.0,4.0,53,0.00,,,0.00,466,Wunderground v.1.15,2013-08-16 00:24:00,
2013-08-15 17:29:00,83.5,64.0,29.91,West,264,2.0,11.0,52,0.00,,,0.00,452,Wunderground v.1.15,2013-08-16 00:29:00,
2013-08-15 17:34:00,83.3,64.4,29.91,West,269,3.0,6.0,53,0.00,,,0.00,434,Wunderground v.1.15,2013-08-16 00:34:00,
2013-08-15 17:40:00,83.2,64.3,29.91,South,182,2.0,5.0,53,0.00,,,0.00,418,Wunderground v.1.15,2013-08-16 00:40:00,
2013-08-15 17:45:00,82.9,64.0,29.91,SSW,192,2.0,8.0,53,0.00,,,0.00,401,Wunderground v.1.15,2013-08-16 00:45:00,
2013-08-15 17:51:00,82.5,63.6,29.91,SSW,192,3.0,4.0,53,0.00,,,0.00,383,Wunderground v.1.15,2013-08-16 00:51:00,
2013-08-15 17:56:00,82.2,63.9,29.91,SSW,209,2.0,4.0,54,0.00,,,0.00,366,Wunderground v.1.15,2013-08-16 00:56:00,
2013-08-15 18:02:00,82.2,63.9,29.91,SW,235,2.0,6.0,54,0.00,,,0.00,346,Wunderground v.1.15,2013-08-16 01:02:00,
2013-08-15 18:08:00,82.0,63.2,29.91,WSW,255,3.0,6.0,53,0.00,,,0.00,327,Wunderground v.1.15,2013-08-16 01:08:00,
2013-08-15 18:14:00,81.4,63.2,29.91,WNW,292,3.0,9.0,54,0.00,,,0.00,308,Wunderground v.1.15,2013-08-16 01:14:00,
2013-08-15 18:20:00,81.0,63.3,29.91,WSW,255,2.0,2.0,55,0.00,,,0.00,288,Wunderground v.1.15,2013-08-16 01:20:00,
2013-08-15 18:26:00,80.6,62.9,29.91,SW,234,2.0,5.0,55,0.00,,,0.00,269,Wunderground v.1.15,2013-08-16 01:26:00,
2013-08-15 18:31:00,80.3,63.2,29.91,SW,215,2.0,4.0,56,0.00,,,0.00,250,Wunderground v.1.15,2013-08-16 01:31:00,
2013-08-15 18:36:00,80.0,62.9,29.91,West,277,2.0,6.0,56,0.00,,,0.00,232,Wunderground v.1.15,2013-08-16 01:36:00,
2013-08-15 18:41:00,79.6,63.0,29.91,SSW,208,2.0,4.0,57,0.00,,,0.00,204,Wunderground v.1.15,2013-08-16 01:41:00,
2013-08-15 18:47:00,79.3,63.2,29.91,SW,225,1.0,4.0,58,0.00,,,0.00,186,Wunderground v.1.15,2013-08-16 01:47:00,
2013-08-15 18:52:00,79.3,63.2,29.91,SW,225,0.0,1.0,58,0.00,,,0.00,162,Wunderground v.1.15,2013-08-16 01:52:00,
2013-08-15 18:58:00,79.3,63.2,29.91,SW,222,1.0,3.0,58,0.00,,,0.00,144,Wunderground v.1.15,2013-08-16 01:58:00,
2013-08-15 19:03:00,79.1,63.1,29.91,SW,223,1.0,1.0,58,0.00,,,0.00,127,Wunderground v.1.15,2013-08-16 02:03:00,
2013-08-15 19:08:00,78.8,63.3,29.91,SW,219,1.0,3.0,59,0.00,,,0.00,109,Wunderground v.1.15,2013-08-16 02:08:00,
2013-08-15 19:14:00,78.4,62.9,29.91,SSW,213,1.0,2.0,59,0.00,,,0.00,79,Wunderground v.1.15,2013-08-16 02:14:00,
2013-08-15 19:19:00,78.0,63.0,29.91,SSW,213,1.0,2.0,60,0.00,,,0.00,21,Wunderground v.1.15,2013-08-16 02:19:00,
2013-08-15 19:25:00,77.4,62.9,29.91,SSW,212,0.0,1.0,61,0.00,,,0.00,23,Wunderground v.1.15,2013-08-16 02:25:00,
2013-08-15 19:30:00,76.9,62.4,29.91,SSW,212,0.0,1.0,61,0.00,,,0.00,16,Wunderground v.1.15,2013-08-16 02:30:00,
2013-08-15 19:35:00,76.4,62.4,29.91,SSW,212,0.0,1.0,62,0.00,,,0.00,14,Wunderground v.1.15,2013-08-16 02:35:00,
2013-08-15 19:40:00,75.9,62.4,29.91,SSW,211,0.0,1.0,63,0.00,,,0.00,12,Wunderground v.1.15,2013-08-16 02:40:00,
2013-08-15 19:46:00,75.5,62.5,29.92,SSW,211,0.0,1.0,64,0.00,,,0.00,11,Wunderground v.1.15,2013-08-16 02:46:00,
2013-08-15 19:51:00,75.1,62.1,29.92,SSW,211,0.0,1.0,64,0.00,,,0.00,9,Wunderground v.1.15,2013-08-16 02:51:00,
2013-08-15 19:57:00,74.7,62.1,29.92,SSW,211,0.0,1.0,65,0.00,,,0.00,7,Wunderground v.1.15,2013-08-16 02:57:00,
2013-08-15 20:02:00,74.4,62.3,29.92,SSW,211,0.0,1.0,66,0.00,,,0.00,0,Wunderground v.1.15,2013-08-16 03:02:00,
2013-08-15 20:07:00,74.2,62.1,29.92,SSW,211,0.0,1.0,66,0.00,,,0.00,0,Wunderground v.1.15,2013-08-16 03:07:00,
2013-08-15 20:12:00,73.9,61.8,29.92,SSW,211,0.0,1.0,66,0.00,,,0.00,0,Wunderground v.1.15,2013-08-16 03:12:00,
2013-08-15 20:18:00,73.7,62.1,29.92,SSW,211,0.0,1.0,67,0.00,,,0.00,0,Wunderground v.1.15,2013-08-16 03:18:00,
2013-08-15 20:23:00,73.5,61.9,29.92,SSW,211,0.0,1.0,67,0.00,,,0.00,0,Wunderground v.1.15,2013-08-16 03:23:00,
2013-08-15 20:29:00,73.2,62.0,29.92,SSW,211,0.0,1.0,68,0.00,,,0.00,0,Wunderground v.1.15,2013-08-16 03:29:00,
2013-08-15 20:35:00,72.9,61.7,29.92,SSW,211,0.0,1.0,68,0.00,,,0.00,0,Wunderground v.1.15,2013-08-16 03:35:00,
2013-08-15 20:40:00,72.6,61.8,29.92,SSW,211,0.0,1.0,69,0.00,,,0.00,0,Wunderground v.1.15,2013-08-16 03:40:00,
2013-08-15 20:45:00,72.3,62.0,29.92,SSW,211,0.0,1.0,70,0.00,,,0.00,0,Wunderground v.1.15,2013-08-16 03:45:00,
2013-08-15 20:51:00,72.0,61.7,29.93,SSW,211,0.0,1.0,70,0.00,,,0.00,0,Wunderground v.1.15,2013-08-16 03:51:00,
2013-08-15 20:56:00,71.7,61.8,29.92,SSW,211,0.0,1.0,71,0.00,,,0.00,0,Wunderground v.1.15,2013-08-16 03:56:00,
2013-08-15 21:01:00,71.4,61.5,29.92,SSW,211,0.0,1.0,71,0.00,,,0.00,0,Wunderground v.1.15,2013-08-16 04:01:00,
2013-08-15 21:02:00,71.4,61.5,29.92,SSW,211,0.0,1.0,71,0.00,,,0.00,0,Wunderground v.1.15,2013-08-16 04:02:00,
2013-08-15 21:05:00,71.1,61.6,29.92,SSW,211,0.0,1.0,72,0.00,,,0.00,0,Wunderground v.1.15,2013-08-16 04:05:00,
2013-08-15 21:07:00,71.0,61.5,29.92,SSW,211,0.0,1.0,72,0.00,,,0.00,0,Wunderground v.1.15,2013-08-16 04:07:00,
2013-08-15 21:11:00,70.8,61.7,29.93,SSW,211,0.0,1.0,73,0.00,,,0.00,0,Wunderground v.1.15,2013-08-16 04:11:00,
2013-08-15 21:16:00,70.6,61.5,29.93,SSW,211,0.0,1.0,73,0.00,,,0.00,0,Wunderground v.1.15,2013-08-16 04:16:00,
2013-08-15 21:22:00,70.4,61.3,29.93,SSW,211,0.0,1.0,73,0.00,,,0.00,0,Wunderground v.1.15,2013-08-16 04:22:00,
2013-08-15 21:27:00,70.2,61.5,29.93,SSW,211,0.0,1.0,74,0.00,,,0.00,0,Wunderground v.1.15,2013-08-16 04:27:00,
2013-08-15 21:32:00,70.0,61.3,29.93,SSW,211,0.0,1.0,74,0.00,,,0.00,0,Wunderground v.1.15,2013-08-16 04:32:00,
2013-08-15 21:37:00,69.9,61.6,29.93,SSW,211,0.0,1.0,75,0.00,,,0.00,0,Wunderground v.1.15,2013-08-16 04:37:00,
2013-08-15 21:43:00,69.6,61.3,29.93,SW,215,0.0,2.0,75,0.00,,,0.00,0,Wunderground v.1.15,2013-08-16 04:43:00,
2013-08-15 21:48:00,69.4,61.5,29.94,SW,217,1.0,2.0,76,0.00,,,0.00,0,Wunderground v.1.15,2013-08-16 04:48:00,
2013-08-15 21:53:00,69.2,61.3,29.94,SW,217,0.0,1.0,76,0.00,,,0.00,0,Wunderground v.1.15,2013-08-16 04:53:00,
2013-08-15 21:58:00,69.0,61.1,29.94,SW,217,0.0,1.0,76,0.00,,,0.00,0,Wunderground v.1.15,2013-08-16 04:58:00,
2013-08-15 22:04:00,68.8,61.3,29.94,SW,218,0.0,1.0,77,0.00,,,0.00,0,Wunderground v.1.15,2013-08-16 05:04:00,
2013-08-15 22:09:00,68.6,61.1,29.94,SW,218,0.0,1.0,77,0.00,,,0.00,0,Wunderground v.1.15,2013-08-16 05:09:00,
2013-08-15 22:14:00,68.3,61.2,29.94,SW,218,0.0,1.0,78,0.00,,,0.00,0,Wunderground v.1.15,2013-08-16 05:14:00,
2013-08-15 22:20:00,68.2,61.1,29.94,SW,219,0.0,1.0,78,0.00,,,0.00,0,Wunderground v.1.15,2013-08-16 05:20:00,
2013-08-15 22:25:00,67.9,61.1,29.94,SW,219,1.0,2.0,79,0.00,,,0.00,0,Wunderground v.1.15,2013-08-16 05:25:00,
2013-08-15 22:30:00,67.7,61.0,29.94,SW,220,1.0,2.0,79,0.00,,,0.00,0,Wunderground v.1.15,2013-08-16 05:30:00,
2013-08-15 22:35:00,67.5,60.8,29.94,SW,220,1.0,2.0,79,0.00,,,0.00,0,Wunderground v.1.15,2013-08-16 05:35:00,
2013-08-15 22:41:00,67.2,60.8,29.94,SW,224,1.0,1.0,80,0.00,,,0.00,0,Wunderground v.1.15,2013-08-16 05:41:00,
2013-08-15 22:46:00,67.0,60.6,29.94,SW,225,0.0,1.0,80,0.00,,,0.00,0,Wunderground v.1.15,2013-08-16 05:46:00,
2013-08-15 22:51:00,66.8,60.4,29.94,SW,225,0.0,1.0,80,0.00,,,0.00,0,Wunderground v.1.15,2013-08-16 05:51:00,
2013-08-15 22:56:00,66.7,60.7,29.93,SW,225,0.0,1.0,81,0.00,,,0.00,0,Wunderground v.1.15,2013-08-16 05:56:00,
2013-08-15 23:02:00,66.5,60.5,29.94,SW,225,0.0,1.0,81,0.00,,,0.00,0,Wunderground v.1.15,2013-08-16 06:02:00,
2013-08-15 23:07:00,66.3,60.3,29.94,SW,225,0.0,1.0,81,0.00,,,0.00,0,Wunderground v.1.15,2013-08-16 06:07:00,
2013-08-15 23:12:00,66.1,60.1,29.93,SW,225,0.0,1.0,81,0.00,,,0.00,0,Wunderground v.1.15,2013-08-16 06:12:00,
2013-08-15 23:18:00,66.0,60.3,29.93,SW,225,0.0,1.0,82,0.00,,,0.00,0,Wunderground v.1.15,2013-08-16 06:18:00,
2013-08-15 23:23:00,65.9,60.2,29.93,SW,225,0.0,1.0,82,0.00,,,0.00,0,Wunderground v.1.15,2013-08-16 06:23:00,
2013-08-15 23:28:00,65.7,60.1,29.93,SW,225,0.0,1.0,82,0.00,,,0.00,0,Wunderground v.1.15,2013-08-16 06:28:00,
2013-08-15 23:33:00,65.6,60.0,29.94,SW,225,0.0,1.0,82,0.00,,,0.00,0,Wunderground v.1.15,2013-08-16 06:33:00,
2013-08-15 23:35:00,65.5,59.9,29.94,SW,225,0.0,1.0,82,0.00,,,0.00,0,Wunderground v.1.15,2013-08-16 06:35:00,
2013-08-15 23:40:00,65.4,59.8,29.94,SW,225,0.0,1.0,82,0.00,,,0.00,0,Wunderground v.1.15,2013-08-16 06:40:00,
2013-08-15 23:45:00,65.3,59.7,29.94,SW,225,0.0,1.0,82,0.00,,,0.00,0,Wunderground v.1.15,2013-08-16 06:45:00,
2013-08-15 23:50:00,65.2,59.9,29.94,SW,225,0.0,1.0,83,0.00,,,0.00,0,Wunderground v.1.15,2013-08-16 06:50:00,
2013-08-15 23:56:00,65.0,59.7,29.94,SW,225,0.0,1.0,83,0.00,,,0.00,0,Wunderground v.1.15,2013-08-16 06:56:00,